Theta_e
319 320 320 320 320 320 321 322 322 323 324 324 324 324 324 324 322 323 314 318 320 332 329 320 319 320 320 315 315 314 310 308 307 309 311 316 314 325 325 324 322 322 323 331 349
318 319 319 319 320 321 321 321 322 322 323 323 324 324 324 324 320 316 325 334 335 334 320 318 316 318 315 313 315 312 311 308 312 313 313 313 314 319 318 318 320 319 328 336 347
317 318 319 319 319 320 320 321 321 322 323 323 323 324 324 325 316 314 335 340 336 330 320 319 318 316 312 314 312 313 309 311 311 313 313 311 311 315 314 314 316 315 318 331 342
317 317 318 318 319 320 320 320 321 323 322 322 322 324 325 321 305 317 338 338 338 324 320 318 317 313 311 309 313 309 311 311 311 311 310 310 312 311 312 313 316 318 327 326 330
317 317 317 318 318 319 319 320 320 320 320 321 323 324 321 313 313 321 335 329 324 320 317 316 314 313 309 310 311 309 310 310 311 311 311 312 310 310 313 315 318 326 328 328 328
316 317 317 317 318 318 318 318 318 318 319 321 324 323 316 308 321 323 322 320 320 319 317 317 315 316 312 311 311 311 310 310 311 311 311 310 311 311 314 317 317 318 320 323 328
316 316 316 317 318 318 318 317 317 318 320 323 325 321 315 312 323 323 322 320 320 319 316 318 318 315 315 311 314 312 308 310 310 310 308 311 308 308 314 317 316 317 319 320 321
316 316 316 317 318 318 318 318 318 319 322 325 326 322 313 322 324 321 323 321 322 321 320 319 320 317 314 315 311 308 309 305 309 310 309 309 304 310 315 316 316 317 319 320 322
316 315 316 317 317 317 317 316 319 322 324 324 319 317 312 322 317 320 322 318 319 320 319 318 319 314 313 309 306 308 303 304 305 310 309 309 305 310 314 315 315 317 319 321 322
316 315 316 316 317 317 316 316 320 320 321 318 315 314 316 313 318 318 321 320 317 318 317 316 317 311 311 308 301 302 302 303 303 307 308 307 307 310 313 313 314 316 318 320 322
316 315 315 316 316 316 318 323 318 317 318 310 313 313 314 319 319 317 319 318 318 315 310 313 311 307 306 308 307 305 304 302 305 307 306 306 306 308 311 312 313 315 317 319 321
315 315 316 315 316 315 321 319 317 318 313 315 315 315 317 318 311 316 321 314 312 307 310 309 305 307 308 307 305 305 303 303 305 306 306 306 305 308 309 310 312 313 315 316 319
314 314 315 315 315 321 322 319 323 321 313 310 314 314 315 316 311 313 317 314 311 308 308 305 306 308 307 305 304 304 303 302 302 305 306 305 303 305 308 310 311 313 314 315 316
313 314 314 314 317 325 320 324 323 322 308 308 310 314 314 314 310 317 318 314 311 307 308 306 307 306 305 303 305 301 304 303 302 301 298 305 295 304 306 307 308 310 312 313 314
313 313 313 313 325 322 321 326 324 323 298 310 310 319 314 310 312 312 319 315 308 308 309 303 304 304 303 302 304 301 304 302 301 300 300 300 297 302 306 304 306 309 311 312 314
312 312 313 320 327 322 324 325 324 308 297 304 309 308 309 309 310 313 313 317 314 309 309 306 309 306 304 305 304 304 302 302 301 300 294 298 296 298 301 304 307 308 310 310 312
312 312 316 321 320 323 326 320 307 301 308 303 305 307 307 306 307 309 308 308 306 303 303 305 305 306 306 303 304 303 300 294 292 293 291 299 295 298 304 306 307 308 309 310 311
310 310 312 324 329 327 325 313 301 304 304 309 307 307 304 307 307 307 306 305 308 307 304 301 298 303 304 301 299 299 299 294 286 289 291 298 292 300 306 307 308 309 309 310 311
308 328 329 326 328 329 318 305 306 305 307 306 307 304 304 306 306 306 306 305 305 308 303 302 299 303 303 304 302 299 300 301 296 297 292 297 298 303 305 305 306 307 308 309 310
330 327 324 325 328 325 312 303 307 308 308 308 304 305 302 304 303 304 305 306 304 306 309 304 298 301 302 303 304 302 303 297 298 288 285 293 292 294 300 302 305 305 306 308 309
329 319 323 325 327 318 306 308 307 309 310 307 305 304 304 303 303 303 303 305 306 304 308 306 302 299 300 299 298 300 299 298 297 294 289 287 292 302 301 303 303 305 307 307 308
324 314 323 326 313 318 310 309 303 308 310 308 309 306 304 303 302 302 302 305 307 307 302 305 303 297 296 301 303 302 299 298 295 291 295 293 292 304 303 305 306 306 306 307 308
316 318 326 323 308 310 310 307 308 307 307 307 306 307 307 304 301 303 303 307 308 306 304 306 301 296 295 300 302 299 301 301 300 300 294 291 293 305 305 305 304 303 303 306 307
316 310 317 320 316 312 309 307 305 307 306 307 307 308 306 303 305 302 303 304 308 308 303 308 302 299 293 295 299 296 298 300 300 296 295 295 296 300 302 302 304 303 305 305 305
314 311 311 310 310 312 310 308 305 303 307 308 305 305 304 301 302 302 304 304 306 305 307 307 299 299 299 299 299 298 298 298 298 299 295 296 296 299 301 302 303 303 304 303 302
311 309 312 313 309 309 305 307 305 305 306 305 305 305 306 303 303 301 303 303 302 306 305 306 299 299 297 299 299 297 299 299 299 299 297 297 296 302 304 304 302 302 302 301 301
312 313 311 304 307 307 308 307 305 307 306 307 307 305 303 304 306 307 308 306 306 303 304 302 299 298 295 298 298 295 299 298 298 299 299 294 299 302 301 300 301 302 302 301 301
Wind_Speed
6 5 6 6 6 7 8 8 9 10 10 11 12 12 12 9 3 9 10 6 5 4 4 5 7 5 7 4 0 3 7 7 5 6 11 7 4 1 3 3 2 2 6 6 10
6 6 5 6 6 7 8 9 10 10 11 12 12 12 11 7 5 13 4 6 6 6 7 6 6 8 5 3 2 7 4 5 4 6 10 7 1 5 4 4 6 3 4 4 11
6 5 5 6 7 7 9 10 10 11 11 12 12 12 11 8 7 11 7 7 4 7 2 1 3 5 6 2 3 1 10 7 7 6 2 4 5 1 4 4 15 13 5 4 8
5 5 5 6 7 8 9 10 10 11 11 12 13 12 9 9 3 6 8 6 4 6 5 6 6 6 5 7 5 12 7 3 6 5 2 2 5 11 12 11 11 5 9 0 5
5 5 5 6 7 8 9 10 10 11 12 12 12 11 6 5 9 5 7 3 5 3 5 3 6 5 7 7 6 9 6 4 3 6 7 9 8 8 17 16 8 6 3 5 7
4 5 6 7 8 9 10 11 11 11 12 12 13 15 5 8 4 4 6 3 4 3 4 3 3 5 6 5 3 4 4 4 2 8 3 9 10 4 15 14 9 8 8 8 9
5 5 6 7 8 9 10 11 10 11 11 10 10 6 2 8 3 6 2 5 4 3 2 4 2 7 8 10 6 10 9 8 7 4 5 4 10 11 12 10 9 9 9 10 10
6 6 7 7 8 9 10 11 11 11 10 7 8 5 6 2 6 1 4 7 6 3 5 4 2 7 2 10 7 8 6 8 9 5 4 8 8 9 9 8 9 9 9 10 11
7 6 6 7 8 10 11 12 11 7 7 7 6 7 9 4 2 5 5 7 5 8 7 4 2 3 7 12 10 9 4 3 8 5 3 7 9 7 6 6 7 8 9 11 12
8 7 7 8 8 10 12 7 4 4 5 4 2 5 5 5 3 3 2 4 3 8 8 3 3 7 8 8 5 6 6 3 2 5 2 6 8 6 5 6 7 8 10 11 13
10 8 8 9 9 10 9 5 7 7 3 5 5 3 5 1 3 3 2 2 4 6 6 2 2 6 5 6 6 1 4 3 3 3 2 3 5 5 5 5 7 9 10 12 13
12 10 9 10 9 8 6 3 6 6 3 1 1 2 1 2 4 6 1 4 2 6 6 7 8 4 4 2 1 4 5 2 3 1 8 7 6 4 4 6 7 7 10 11 11
13 11 10 10 9 4 8 6 5 4 4 5 1 1 3 5 3 7 3 3 9 11 7 11 8 2 4 3 3 1 6 2 8 1 6 6 12 10 7 6 6 7 8 9 11
14 11 10 11 1 1 4 7 2 5 6 6 7 4 5 2 4 4 4 3 3 7 8 8 4 2 3 6 9 9 3 7 9 10 9 4 9 13 10 8 5 4 6 7 9
14 11 10 5 3 1 6 7 2 5 5 6 7 3 4 3 6 4 4 2 5 6 7 7 3 3 5 6 7 6 7 7 9 11 11 13 8 12 10 10 8 3 3 4 6
15 10 7 4 2 5 6 1 5 8 4 7 5 7 10 4 3 3 2 5 2 3 6 9 3 4 6 1 3 5 8 7 7 7 11 4 5 4 7 9 7 4 0 4 7
14 6 4 3 4 6 5 5 7 7 4 7 6 6 5 3 4 2 2 3 5 6 8 6 3 4 6 9 6 8 8 4 5 6 5 3 8 3 6 3 2 1 1 2 5
15 3 2 3 4 5 5 6 6 2 2 4 3 6 4 1 3 1 3 7 2 5 6 6 9 3 4 6 7 5 7 4 6 6 11 7 6 8 5 3 2 1 4 6 8
11 3 3 5 4 4 6 7 3 3 3 4 7 7 5 4 3 4 2 1 3 4 5 4 4 5 6 5 5 4 1 5 7 8 9 1 4 11 7 6 3 3 6 9 11
2 3 3 7 5 5 6 3 2 1 0 2 4 3 4 2 4 4 4 2 3 3 4 3 4 1 4 3 6 7 4 5 3 6 9 6 8 5 7 8 4 8 9 10 13
3 5 6 5 4 5 4 3 5 4 1 3 2 2 1 1 3 2 2 5 0 2 3 1 2 8 5 3 3 7 5 1 5 5 6 9 5 6 8 8 8 13 15 14 16
3 5 4 2 5 1 3 2 1 6 3 3 2 2 1 1 2 3 3 3 1 1 1 4 3 5 3 3 1 3 3 4 3 3 7 10 13 6 4 9 9 13 14 15 16
5 3 3 4 4 4 4 5 1 4 2 2 3 1 0 2 3 4 2 4 1 2 2 4 2 3 6 7 8 8 6 7 6 6 10 9 8 7 7 10 5 13 14 18 20
5 3 3 2 1 4 5 6 6 3 3 3 4 3 4 4 3 3 5 3 2 2 3 2 4 8 7 7 5 5 8 8 9 7 12 14 20 17 17 17 17 17 18 20 21
3 4 3 1 4 1 3 2 7 6 2 4 4 5 5 4 5 5 4 6 4 6 3 5 7 6 9 9 9 11 13 12 13 14 15 18 18 18 15 17 19 17 20 22 23
5 4 3 1 3 4 3 6 7 5 6 7 6 6 5 4 4 2 4 4 6 6 5 4 6 6 10 9 11 14 14 13 12 13 15 15 17 13 16 16 19 19 20 23 22
2 2 5 3 3 5 3 4 4 4 3 2 4 6 6 0 1 3 3 2 3 4 8 5 4 6 7 1 9 13 9 8 6 9 11 13 16 16 16 18 19 21 22 20 25
Wind_Direction
344 339 332 325 316 312 311 312 311 315 312 306 304 302 297 304 272 196 57 7 323 169 269 258 220 199 210 135 326 264 238 202 149 184 113 142 173 171 61 155 119 43 5 59 136
337 331 330 324 317 312 312 312 316 315 311 306 302 300 297 297 203 66 2 329 298 240 237 211 163 194 146 133 144 250 220 63 37 66 131 129 301 146 221 162 202 220 126 136 154
326 324 326 324 318 314 314 316 315 312 310 307 306 301 298 272 100 50 16 335 293 241 347 244 174 215 126 169 46 311 94 122 102 66 359 118 139 120 268 189 10 338 94 157 185
320 321 321 319 316 316 316 313 310 309 310 310 307 304 306 234 79 46 355 327 239 294 235 166 199 160 151 116 105 115 93 82 79 55 227 134 101 75 46 10 334 318 3 324 209
320 317 315 313 313 313 310 309 310 312 311 309 305 308 259 133 91 58 314 165 251 300 20 50 125 152 130 129 139 115 113 95 102 90 57 96 58 96 30 1 15 17 355 333 313
327 316 311 311 310 309 309 310 308 306 306 310 316 315 226 118 25 337 331 236 14 341 49 31 74 80 119 117 338 143 131 120 87 85 92 95 60 354 10 353 11 6 356 338 321
342 325 315 311 309 309 309 307 301 298 299 302 312 308 234 84 331 320 308 18 350 325 106 67 76 236 150 120 139 155 152 130 83 132 129 151 76 36 4 1 10 1 348 336 337
350 337 324 311 308 308 304 300 293 292 293 290 303 267 85 67 325 11 359 108 71 71 92 99 149 114 309 117 163 202 243 194 81 156 139 228 104 46 9 10 27 21 13 359 2
350 341 328 319 315 311 304 298 289 284 276 272 250 282 110 145 142 12 0 23 104 106 92 126 151 93 169 197 177 194 170 165 122 57 162 253 114 50 26 36 41 38 33 29 25
350 342 331 322 319 315 303 276 276 260 225 249 270 213 159 84 355 338 46 5 151 142 132 188 173 160 170 222 224 147 175 192 243 80 107 106 109 87 57 57 53 50 47 45 42
353 341 329 323 318 316 300 205 198 178 208 1 58 48 111 53 233 99 18 70 175 215 147 86 205 51 33 16 28 300 264 268 87 90 223 81 122 92 77 76 69 55 50 48 47
352 342 329 320 314 302 264 43 36 11 165 119 297 261 252 315 159 97 5 65 122 132 153 157 63 76 73 99 218 263 270 222 192 95 279 176 151 130 110 83 65 57 55 48 46
346 340 328 318 310 268 59 42 313 251 257 128 76 214 122 220 100 68 358 90 63 83 74 63 79 137 104 90 288 331 307 293 301 248 250 232 197 180 150 129 101 75 60 50 43
344 336 326 322 226 45 81 348 316 209 220 130 166 126 179 174 117 6 11 334 123 94 83 80 91 55 72 65 335 284 22 294 280 274 290 244 291 190 164 160 147 107 55 36 24
341 331 319 319 18 289 9 333 147 233 203 137 126 75 164 245 114 115 37 286 50 111 254 94 125 359 31 20 335 16 320 298 290 272 290 228 254 103 173 191 167 153 56 35 18
338 325 310 220 219 46 332 237 228 231 141 144 146 175 175 173 120 121 171 72 52 98 69 121 104 32 21 11 331 308 258 247 260 258 239 101 267 224 178 237 163 182 351 2 354
340 322 261 302 23 339 313 217 215 266 144 150 157 191 181 143 146 271 240 190 271 232 177 174 114 110 355 300 190 325 307 303 230 203 281 100 263 324 96 141 299 260 296 332 330
338 315 144 28 329 310 242 224 242 87 140 115 166 168 194 263 141 169 220 213 110 254 279 278 178 2 10 14 335 356 332 313 303 321 319 230 260 76 87 134 171 266 315 298 324
319 166 179 25 341 278 250 232 68 121 81 160 166 204 149 140 294 221 285 350 38 353 282 279 139 113 54 29 320 66 348 10 300 263 260 2 194 187 168 184 212 304 320 321 325
274 227 92 335 318 258 241 34 119 46 3 226 235 298 213 117 248 228 190 78 113 14 323 77 272 172 97 238 75 335 90 222 184 294 309 328 311 312 187 242 233 276 311 316 312
251 231 65 334 251 230 249 87 126 83 344 338 121 148 66 300 288 233 64 107 66 95 41 65 259 132 207 204 325 168 189 307 300 290 294 309 11 54 319 332 312 319 323 316 320
298 234 49 264 230 279 188 127 349 129 127 107 83 78 284 172 247 231 226 32 39 216 293 59 300 256 353 99 247 287 286 295 280 255 257 281 291 49 359 318 309 298 308 314 305
330 324 106 277 255 181 137 138 85 171 89 142 120 342 179 195 237 233 173 98 112 218 178 155 210 285 188 170 188 242 220 254 285 285 279 282 280 184 236 246 263 291 319 315 308
287 249 144 115 49 302 186 180 155 94 106 93 117 158 176 196 202 202 184 141 88 82 33 200 249 251 274 345 326 241 245 254 263 277 274 282 306 309 321 322 329 326 312 306 315
345 74 12 15 112 340 254 198 192 173 160 188 170 222 200 215 217 220 198 165 165 149 161 251 262 253 267 279 265 274 279 277 265 268 277 294 303 311 337 328 315 314 321 318 319
332 323 176 135 287 248 163 204 224 161 192 191 241 168 192 250 256 281 215 224 252 176 211 198 267 276 270 258 269 270 269 269 269 277 282 291 293 332 335 311 323 322 320 314 319
76 141 284 126 187 241 213 228 246 199 182 297 211 182 208 129 322 33 36 23 308 234 204 217 260 256 280 254 283 267 258 248 272 281 288 290 304 320 321 320 318 323 312 326 327